Location: Pedimozza
(42.0500°N, 9.3500°E)
Time: 07:35:33
(UTC+00:00)

Cosmos 2082 Rocket - Pass Details

Date: 19 August 2019
Orbit: 831 x 855 km, 71.0° (Epoch: 16 October)

Event Time Altitude Azimuth Distance (km) Brightness Sun altitude
Exits shadow 21:02:02 36° 64° (ENE) 1,307 3.0 -26.1°
Drops below altitude 10° 21:05:44 10° 36° (NE) 2,465 4.8 -26.5°
Sets 21:08:16 0° 30° (NNE) 3,408 5.6 -26.8°
